FENGYUN 1C DEB

Satellite information

Favourite Embed

Satellite Type and Status

DEBRISIN ORBIT

Key statistics

Satellite FENGYUN 1C DEB at a glance.

Uptime

9553

Days in orbit

Revolutions

≈ 14.1

Per day

Orbit

SSO

Sun Synchronous Orbit

Inclination

99.7

Latest

Satellite identification and parameters

Extended collection of information and parameters for FENGYUN 1C DEB.

Object identification

Identified? True

Debris? True

Object name: FENGYUN 1C DEB

International designator: 1999-025DHF

Object number (NORAD): 33718

Object ID (CCSDS): 33718

Country: PEOPLES REPUBLIC OF CHINA (PRC)

Current information (Y/N): Y

RCS size: SMALL

Orbital parameters

Period: 102.348 minutes

Inclination: 99.6644 deg

SMA: 7247.915 km

Apoapsis: 943.461 km

Periapsis: 796.099 km

RAAN: 254.5675 deg

Eccentricy: 0.0101658

Argument of periapsis: 60.125 deg

Mean anomaly: 300.9971 deg

Mean motion: 14.06964505 rev/day

Mean motion (dot): 0.00001429 rev/day2

B* drag term: 0.00084556 1/REarth

Two-line elements (TLE)

Creation date: June 28, 2025, 5:41 p.m.

Reference frame: TEME

Reference center: EARTH

Epoch: June 28, 2025, 11:19 a.m. UTC

TLE line 0: 0 FENGYUN 1C DEB

TLE line 1: 1 33718U 99025DHF 25179.47198157 .00001429 00000-0 84556-3 0 9990

TLE line 2: 2 33718 99.6644 254.5675 0101658 60.1250 300.9971 14.06964505668336

Live tracking on map

Real-time ground track for satellite FENGYUN 1C DEB.

In-orbit conjunctions

A list of the most updated potential collisions computed for object FENGYUN 1C DEB.

Target Orbit TCA Probability of collision Miss distance Type
COSMOS 1677 LEO 2024-11-03 04:34:44 0.0001551439 741.0 (m) PAYLOAD
SL-3 R/B LEO 2024-07-02 12:07:11 0.0002334668 472.0 (m) ROCKET BODY

Associated space launch

Chinese polar orbiting meteorological satellite

FENGYUN 1C DEB was lifted into orbit during the mission ‘Long March 4B | Feng Yun 1C’, on board a Long March 4B space rocket.

The launch took place on May 10, 1999, 1:33 a.m. from Launch Complex 7.

For more information about the launch, click the button.

Launch to space Long March 4B | Feng Yun 1C
Long March 4B | Feng Yun 1C

Agency: N/A

Status: Launch Successful

Launch date: May 10, 1999, 1:33 a.m. UTC

Rocket: Long March 4B

Launch pad: Launch Complex 7

Location: Taiyuan Satellite Launch Center, People's Republic of China

...

Latest news about this satellite

There are no fresh news available about this satellite. Check back as we update our databases every day.


Newsletter sign-up

Weekly statistics, charts and insights to help you stay on top of the space industry.